KUNPENG-03

Last updated on Thu Aug 14 2025 00:02:07 GMT+0000 (Coordinated Universal Time)

1 64962U 25160A 25224.75626953 .00016828 00000+0 75213-3 0 9994 2 64962 97.3979 299.1705 0011293 214.4538 145.5967 15.21341737 2215
UTC large
Height (km)
Speed (km/s)
/
Latitude / Longitude
Inclination (degrees)
Orbital Period (minutes)
Azimuth
Elevation
Range (km)
Doppler Factor

Next 0 passes for location: London (51.5072 / 0.1276)

Sorry there are no passes over London.
KUNPENG-03